Time,TemperatureF,DewpointF,PressureIn,WindDirection,WindDirectionDegrees,WindSpeedMPH,WindSpeedGustMPH,Humidity,HourlyPrecipIn,Conditions,Clouds,dailyrainin,SolarRadiationWatts/m^2,SoftwareType,DateUTC
2013-04-23 00:01:00,69.7,67.6,29.92,ESE,112,11.5,11.5,93,0.00,CLR,SKC,0.00,0.0,WeatherDisplay:10.37,2013-04-23 05:01:00,
2013-04-23 00:06:00,69.6,67.5,29.92,East,99,10.4,10.4,93,0.00,CLR,SKC,0.00,0.0,WeatherDisplay:10.37,2013-04-23 05:06:00,
2013-04-23 00:11:00,69.6,67.5,29.92,SE,131,11.5,11.5,93,0.00,CLR,SKC,0.00,0.0,WeatherDisplay:10.37,2013-04-23 05:11:00,
2013-04-23 00:16:00,69.6,67.5,29.92,SSE,153,11.5,11.5,93,0.00,CLR,SKC,0.00,0.0,WeatherDisplay:10.37,2013-04-23 05:16:00,
2013-04-23 00:21:00,69.6,67.5,29.92,SSE,148,12.0,12.0,93,0.00,CLR,SKC,0.00,0.0,WeatherDisplay:10.37,2013-04-23 05:21:00,
2013-04-23 00:26:00,69.5,67.4,29.91,South,169,13.8,13.8,93,0.00,CLR,SKC,0.00,0.0,WeatherDisplay:10.37,2013-04-23 05:26:00,
2013-04-23 00:31:00,69.5,67.4,29.91,SE,128,16.1,16.1,93,0.00,CLR,SKC,0.00,0.0,WeatherDisplay:10.37,2013-04-23 05:31:00,
2013-04-23 00:36:00,69.5,67.4,29.91,ESE,102,11.5,11.5,93,0.00,CLR,SKC,0.00,0.0,WeatherDisplay:10.37,2013-04-23 05:36:00,
2013-04-23 00:41:00,69.5,67.4,29.91,SSE,159,11.5,11.5,93,0.00,CLR,SKC,0.00,0.0,WeatherDisplay:10.37,2013-04-23 05:41:00,
2013-04-23 00:46:00,69.5,67.4,29.91,SE,138,12.7,12.7,93,0.00,CLR,SKC,0.00,0.0,WeatherDisplay:10.37,2013-04-23 05:46:00,
2013-04-23 00:51:00,69.5,67.4,29.91,SE,138,11.5,11.5,93,0.00,CLR,SKC,0.00,0.0,WeatherDisplay:10.37,2013-04-23 05:51:00,
2013-04-23 00:56:00,69.5,67.4,29.91,ESE,116,11.5,11.5,93,0.00,CLR,SKC,0.00,0.0,WeatherDisplay:10.37,2013-04-23 05:56:00,
2013-04-23 01:01:00,69.5,67.4,29.91,East,101,13.8,13.8,93,0.00,CLR,SKC,0.00,0.0,WeatherDisplay:10.37,2013-04-23 06:01:00,
2013-04-23 01:06:00,69.4,67.3,29.91,ESE,119,10.4,10.4,93,0.00,CLR,SKC,0.00,0.0,WeatherDisplay:10.37,2013-04-23 06:06:00,
2013-04-23 01:11:00,69.5,67.4,29.91,SE,130,11.5,11.5,93,0.00,CLR,SKC,0.00,0.0,WeatherDisplay:10.37,2013-04-23 06:11:00,
2013-04-23 01:16:00,69.4,67.3,29.91,ESE,117,9.2,9.2,93,0.00,CLR,SKC,0.00,0.0,WeatherDisplay:10.37,2013-04-23 06:16:00,
2013-04-23 01:21:00,69.4,67.3,29.91,SSE,163,9.2,9.2,93,0.00,CLR,SKC,0.00,0.0,WeatherDisplay:10.37,2013-04-23 06:21:00,
2013-04-23 01:26:00,69.4,67.3,29.90,SE,131,10.0,10.0,93,0.00,CLR,SKC,0.00,0.0,WeatherDisplay:10.37,2013-04-23 06:26:00,
2013-04-23 01:31:00,69.4,67.3,29.90,SSE,163,9.2,9.2,93,0.00,CLR,SKC,0.00,0.0,WeatherDisplay:10.37,2013-04-23 06:31:00,
2013-04-23 01:36:00,69.4,67.6,29.90,South,185,8.1,8.1,94,0.00,CLR,SKC,0.00,0.0,WeatherDisplay:10.37,2013-04-23 06:36:00,
2013-04-23 01:41:00,69.4,67.6,29.90,SSE,163,10.4,10.4,94,0.00,CLR,SKC,0.00,0.0,WeatherDisplay:10.37,2013-04-23 06:41:00,
2013-04-23 01:46:00,69.4,67.6,29.90,SE,127,6.9,6.9,94,0.00,CLR,SKC,0.00,0.0,WeatherDisplay:10.37,2013-04-23 06:46:00,
2013-04-23 01:51:00,69.4,67.6,29.90,SSE,165,9.2,9.2,94,0.00,CLR,SKC,0.00,0.0,WeatherDisplay:10.37,2013-04-23 06:51:00,
2013-04-23 01:56:00,69.3,67.5,29.90,SE,142,10.4,10.4,94,0.00,CLR,SKC,0.00,0.0,WeatherDisplay:10.37,2013-04-23 06:56:00,
2013-04-23 02:01:00,69.3,67.5,29.90,SE,138,9.2,9.2,94,0.00,CLR,SKC,0.00,0.0,WeatherDisplay:10.37,2013-04-23 07:01:00,
2013-04-23 02:06:00,69.3,67.5,29.90,SE,138,9.2,9.2,94,0.00,CLR,SKC,0.00,0.0,WeatherDisplay:10.37,2013-04-23 07:06:00,
2013-04-23 02:11:00,69.3,67.5,29.89,South,169,10.4,10.4,94,0.00,CLR,SKC,0.00,0.0,WeatherDisplay:10.37,2013-04-23 07:11:00,
2013-04-23 02:16:00,69.3,67.5,29.89,SSE,166,11.5,11.5,94,0.00,CLR,SKC,0.00,0.0,WeatherDisplay:10.37,2013-04-23 07:16:00,
2013-04-23 02:21:00,69.3,67.5,29.89,SE,128,5.0,5.6,94,0.00,CLR,SKC,0.00,0.0,WeatherDisplay:10.37,2013-04-23 07:21:00,
2013-04-23 02:26:00,69.2,67.4,29.88,SE,134,10.4,10.4,94,0.00,CLR,SKC,0.00,0.0,WeatherDisplay:10.37,2013-04-23 07:26:00,
2013-04-23 02:31:00,69.2,67.4,29.88,SE,136,9.2,9.2,94,0.00,CLR,SKC,0.00,0.0,WeatherDisplay:10.37,2013-04-23 07:31:00,
2013-04-23 02:36:00,69.2,67.4,29.88,South,184,5.8,5.8,94,0.00,CLR,SKC,0.00,0.0,WeatherDisplay:10.37,2013-04-23 07:36:00,
2013-04-23 02:42:00,69.2,67.4,29.88,SSE,150,9.2,9.2,94,0.00,CLR,SKC,0.00,0.0,WeatherDisplay:10.37,2013-04-23 07:42:00,
2013-04-23 02:47:00,69.2,67.4,29.88,ESE,104,10.4,10.4,94,0.00,CLR,SKC,0.00,0.0,WeatherDisplay:10.37,2013-04-23 07:47:00,
2013-04-23 02:52:00,69.2,67.4,29.88,SSE,166,11.5,11.5,94,0.00,CLR,SKC,0.00,0.0,WeatherDisplay:10.37,2013-04-23 07:52:00,
2013-04-23 02:57:00,69.2,67.4,29.87,SSE,162,10.4,10.4,94,0.00,CLR,SKC,0.00,0.0,WeatherDisplay:10.37,2013-04-23 07:57:00,
2013-04-23 03:02:00,69.2,67.4,29.87,SSE,149,5.8,5.8,94,0.00,CLR,SKC,0.00,0.0,WeatherDisplay:10.37,2013-04-23 08:02:00,
2013-04-23 03:07:00,69.2,67.4,29.87,ESE,123,11.5,11.5,94,0.00,CLR,SKC,0.00,0.0,WeatherDisplay:10.37,2013-04-23 08:07:00,
2013-04-23 03:12:00,69.2,67.4,29.87,SE,142,11.5,11.5,94,0.00,CLR,SKC,0.00,0.0,WeatherDisplay:10.37,2013-04-23 08:12:00,
2013-04-23 03:17:00,69.2,67.4,29.87,SSE,150,9.2,9.2,94,0.00,CLR,SKC,0.00,0.0,WeatherDisplay:10.37,2013-04-23 08:17:00,
2013-04-23 03:22:00,69.2,67.4,29.87,SE,136,9.2,9.2,94,0.00,CLR,SKC,0.00,0.0,WeatherDisplay:10.37,2013-04-23 08:22:00,
2013-04-23 03:27:00,69.1,67.3,29.86,SSE,152,6.9,6.9,94,0.00,CLR,SKC,0.00,0.0,WeatherDisplay:10.37,2013-04-23 08:27:00,
2013-04-23 03:32:00,69.1,67.3,29.86,South,178,10.4,10.4,94,0.00,CLR,SKC,0.00,0.0,WeatherDisplay:10.37,2013-04-23 08:32:00,
2013-04-23 03:37:00,69.1,67.3,29.86,SSE,165,9.2,9.2,94,0.00,CLR,SKC,0.00,0.0,WeatherDisplay:10.37,2013-04-23 08:37:00,
2013-04-23 03:42:00,69.1,67.3,29.85,SSE,151,11.5,11.5,94,0.00,CLR,SKC,0.00,0.0,WeatherDisplay:10.37,2013-04-23 08:42:00,
2013-04-23 03:47:00,69.1,67.3,29.85,ESE,111,10.4,10.4,94,0.00,CLR,SKC,0.00,0.0,WeatherDisplay:10.37,2013-04-23 08:47:00,
2013-04-23 03:52:00,69.1,67.3,29.85,South,171,11.5,11.5,94,0.00,CLR,SKC,0.00,0.0,WeatherDisplay:10.37,2013-04-23 08:52:00,
2013-04-23 03:57:00,69.1,67.3,29.85,SE,145,11.5,11.5,94,0.00,CLR,SKC,0.00,0.0,WeatherDisplay:10.37,2013-04-23 08:57:00,
2013-04-23 04:02:00,69.1,67.3,29.85,South,171,9.2,9.2,94,0.00,CLR,SKC,0.00,0.0,WeatherDisplay:10.37,2013-04-23 09:02:00,
2013-04-23 04:07:00,69.1,67.3,29.85,SSE,164,9.2,9.2,94,0.00,CLR,SKC,0.00,0.0,WeatherDisplay:10.37,2013-04-23 09:07:00,
2013-04-23 04:12:00,69.1,67.3,29.84,SE,128,8.1,8.1,94,0.00,CLR,SKC,0.00,0.0,WeatherDisplay:10.37,2013-04-23 09:12:00,
2013-04-23 04:17:00,69.1,67.3,29.84,ESE,113,6.9,6.9,94,0.00,CLR,SKC,0.00,0.0,WeatherDisplay:10.37,2013-04-23 09:17:00,
2013-04-23 04:22:00,69.1,67.3,29.84,SE,125,11.5,11.5,94,0.00,CLR,SKC,0.00,0.0,WeatherDisplay:10.37,2013-04-23 09:22:00,
2013-04-23 04:27:00,69.1,67.3,29.84,SSW,204,10.4,10.4,94,0.00,CLR,SKC,0.00,0.0,WeatherDisplay:10.37,2013-04-23 09:27:00,
2013-04-23 04:32:00,69.1,67.3,29.84,SSE,160,10.4,10.4,94,0.00,CLR,SKC,0.00,0.0,WeatherDisplay:10.37,2013-04-23 09:32:00,
2013-04-23 04:37:00,69.1,67.3,29.84,ESE,116,10.4,10.4,94,0.00,CLR,SKC,0.00,0.0,WeatherDisplay:10.37,2013-04-23 09:37:00,
2013-04-23 04:42:00,69.1,67.3,29.84,South,171,9.2,9.2,94,0.00,CLR,SKC,0.00,0.0,WeatherDisplay:10.37,2013-04-23 09:42:00,
2013-04-23 04:47:00,69.0,67.2,29.84,South,169,7.0,7.0,94,0.00,CLR,SKC,0.00,0.0,WeatherDisplay:10.37,2013-04-23 09:47:00,
2013-04-23 04:52:00,69.0,67.2,29.84,SSE,148,10.4,10.4,94,0.00,CLR,SKC,0.00,0.0,WeatherDisplay:10.37,2013-04-23 09:52:00,
2013-04-23 04:57:00,69.0,67.2,29.84,SE,142,9.2,9.2,94,0.00,CLR,SKC,0.00,0.0,WeatherDisplay:10.37,2013-04-23 09:57:00,
2013-04-23 05:02:00,69.0,67.2,29.84,ESE,107,9.2,9.2,94,0.00,CLR,SKC,0.00,0.0,WeatherDisplay:10.37,2013-04-23 10:02:00,
2013-04-23 05:07:00,69.0,67.2,29.84,ESE,113,6.9,6.9,94,0.00,CLR,SKC,0.00,0.0,WeatherDisplay:10.37,2013-04-23 10:07:00,
2013-04-23 05:12:00,69.0,67.2,29.84,ESE,116,7.0,7.0,94,0.00,CLR,SKC,0.00,0.0,WeatherDisplay:10.37,2013-04-23 10:12:00,
2013-04-23 05:17:00,69.0,67.2,29.84,SSE,167,9.2,9.2,94,0.00,CLR,SKC,0.00,0.0,WeatherDisplay:10.37,2013-04-23 10:17:00,
2013-04-23 05:22:00,69.0,67.5,29.84,SSE,149,6.9,6.9,95,0.00,CLR,SKC,0.00,0.0,WeatherDisplay:10.37,2013-04-23 10:22:00,
2013-04-23 05:27:00,69.0,67.5,29.84,SE,137,6.9,6.9,95,0.00,CLR,SKC,0.00,0.0,WeatherDisplay:10.37,2013-04-23 10:27:00,
2013-04-23 05:32:00,69.0,67.5,29.84,SE,144,9.2,9.2,95,0.00,CLR,SKC,0.00,0.0,WeatherDisplay:10.37,2013-04-23 10:32:00,
2013-04-23 05:37:00,69.0,67.5,29.84,SE,137,10.0,10.0,95,0.00,CLR,SKC,0.00,0.0,WeatherDisplay:10.37,2013-04-23 10:37:00,
2013-04-23 05:42:00,69.0,67.5,29.85,SSE,162,5.8,5.8,95,0.00,CLR,SKC,0.00,0.0,WeatherDisplay:10.37,2013-04-23 10:42:00,
2013-04-23 05:47:00,69.0,67.5,29.85,ESE,113,5.8,5.8,95,0.00,CLR,SKC,0.00,0.0,WeatherDisplay:10.37,2013-04-23 10:47:00,
2013-04-23 05:52:00,69.0,67.5,29.85,SSE,148,10.4,10.4,95,0.00,CLR,SKC,0.00,0.0,WeatherDisplay:10.37,2013-04-23 10:52:00,
2013-04-23 05:57:00,68.9,67.4,29.85,SE,138,11.5,11.5,95,0.00,CLR,SKC,0.00,0.0,WeatherDisplay:10.37,2013-04-23 10:57:00,
2013-04-23 06:02:00,69.0,67.5,29.85,ESE,109,6.9,6.9,95,0.00,CLR,SKC,0.00,0.0,WeatherDisplay:10.37,2013-04-23 11:02:00,
2013-04-23 06:07:00,68.9,67.4,29.85,ESE,116,5.8,5.8,95,0.00,CLR,SKC,0.00,0.0,WeatherDisplay:10.37,2013-04-23 11:07:00,
2013-04-23 06:12:00,68.9,67.4,29.85,SE,135,9.0,9.0,95,0.00,CLR,SKC,0.00,0.0,WeatherDisplay:10.37,2013-04-23 11:12:00,
2013-04-23 06:17:00,68.9,67.4,29.85,SSE,158,9.2,9.2,95,0.00,CLR,SKC,0.00,0.0,WeatherDisplay:10.37,2013-04-23 11:17:00,
2013-04-23 06:22:00,68.9,67.4,29.85,ESE,103,7.0,7.0,95,0.00,CLR,SKC,0.00,0.0,WeatherDisplay:10.37,2013-04-23 11:22:00,
2013-04-23 06:27:00,68.9,67.4,29.85,SE,132,6.9,6.9,95,0.00,CLR,SKC,0.00,0.0,WeatherDisplay:10.37,2013-04-23 11:27:00,
2013-04-23 06:32:00,69.0,67.5,29.85,SE,134,8.1,8.1,95,0.00,CLR,SKC,0.00,0.0,WeatherDisplay:10.37,2013-04-23 11:32:00,
2013-04-23 06:37:00,69.0,67.5,29.85,ESE,123,5.8,5.8,95,0.00,CLR,SKC,0.00,0.0,WeatherDisplay:10.37,2013-04-23 11:37:00,
2013-04-23 06:42:00,69.0,67.5,29.85,SSE,151,10.4,10.4,95,0.00,CLR,SKC,0.00,0.0,WeatherDisplay:10.37,2013-04-23 11:42:00,
2013-04-23 06:47:00,69.1,67.6,29.85,SE,127,9.2,9.2,95,0.00,CLR,SKC,0.00,0.0,WeatherDisplay:10.37,2013-04-23 11:47:00,
2013-04-23 06:52:00,69.1,67.6,29.85,SSE,150,9.2,9.2,95,0.00,CLR,SKC,0.00,0.0,WeatherDisplay:10.37,2013-04-23 11:52:00,
2013-04-23 06:57:00,69.1,67.6,29.85,ESE,122,6.9,6.9,95,0.00,CLR,SKC,0.00,0.0,WeatherDisplay:10.37,2013-04-23 11:57:00,
2013-04-23 07:02:00,69.1,67.6,29.85,ESE,117,9.2,9.2,95,0.00,CLR,SKC,0.00,5.0,WeatherDisplay:10.37,2013-04-23 12:02:00,
2013-04-23 07:07:00,69.2,67.7,29.85,SE,134,10.4,10.4,95,0.00,CLR,SKC,0.00,11.0,WeatherDisplay:10.37,2013-04-23 12:07:00,
2013-04-23 07:12:00,69.2,67.7,29.85,SE,135,11.5,11.5,95,0.00,CLR,SKC,0.00,12.0,WeatherDisplay:10.37,2013-04-23 12:12:00,
2013-04-23 07:17:00,69.2,67.7,29.85,SE,126,8.1,8.1,95,0.00,CLR,SKC,0.00,12.0,WeatherDisplay:10.37,2013-04-23 12:17:00,
2013-04-23 07:22:00,69.2,67.7,29.85,ESE,109,10.4,10.4,95,0.00,CLR,SKC,0.00,19.0,WeatherDisplay:10.37,2013-04-23 12:22:00,
2013-04-23 07:27:00,69.3,67.8,29.86,SSE,151,9.2,9.2,95,0.00,CLR,SKC,0.00,25.0,WeatherDisplay:10.37,2013-04-23 12:27:00,
2013-04-23 07:32:00,69.3,67.8,29.86,SE,128,8.1,8.1,95,0.00,CLR,SKC,0.00,37.0,WeatherDisplay:10.37,2013-04-23 12:32:00,
2013-04-23 07:37:00,69.4,67.6,29.86,ESE,113,10.4,10.4,94,0.00,CLR,SKC,0.00,35.0,WeatherDisplay:10.37,2013-04-23 12:37:00,
2013-04-23 07:42:00,69.5,68.0,29.87,SSE,148,11.5,11.5,95,0.00,CLR,SKC,0.00,72.0,WeatherDisplay:10.37,2013-04-23 12:42:00,
2013-04-23 07:47:00,69.7,68.2,29.87,ESE,119,11.5,11.5,95,0.00,CLR,SKC,0.00,91.0,WeatherDisplay:10.37,2013-04-23 12:47:00,
2013-04-23 07:52:00,69.8,68.0,29.87,SE,134,8.1,8.1,94,0.00,CLR,SKC,0.00,86.0,WeatherDisplay:10.37,2013-04-23 12:52:00,
2013-04-23 07:57:00,69.8,68.0,29.87,SE,128,6.9,6.9,94,0.00,CLR,SKC,0.00,90.0,WeatherDisplay:10.37,2013-04-23 12:57:00,
2013-04-23 08:02:00,69.9,68.1,29.87,ESE,115,6.9,6.9,94,0.00,CLR,SKC,0.00,149.0,WeatherDisplay:10.37,2013-04-23 13:02:00,
2013-04-23 08:07:00,70.2,68.4,29.87,SE,126,11.5,11.5,94,0.00,CLR,SKC,0.00,181.0,WeatherDisplay:10.37,2013-04-23 13:07:00,
2013-04-23 08:12:00,70.5,68.7,29.87,ESE,109,5.8,5.8,94,0.00,CLR,SKC,0.00,237.0,WeatherDisplay:10.37,2013-04-23 13:12:00,
2013-04-23 08:17:00,70.5,68.4,29.87,ESE,116,10.4,10.4,93,0.00,CLR,SKC,0.00,141.0,WeatherDisplay:10.37,2013-04-23 13:17:00,
2013-04-23 08:22:00,70.6,68.5,29.87,East,87,10.4,10.4,93,0.00,CLR,SKC,0.00,155.0,WeatherDisplay:10.37,2013-04-23 13:22:00,
2013-04-23 08:27:00,70.6,68.5,29.87,ESE,109,11.5,11.5,93,0.00,CLR,SKC,0.00,167.0,WeatherDisplay:10.37,2013-04-23 13:27:00,
2013-04-23 08:32:00,70.8,68.7,29.87,SE,138,11.5,11.5,93,0.00,CLR,SKC,0.00,244.0,WeatherDisplay:10.37,2013-04-23 13:32:00,
2013-04-23 08:37:00,71.0,68.9,29.87,ESE,120,10.4,10.4,93,0.00,CLR,SKC,0.00,308.0,WeatherDisplay:10.37,2013-04-23 13:37:00,
2013-04-23 08:42:00,71.2,68.8,29.87,SE,141,9.2,9.2,92,0.00,CLR,SKC,0.00,229.0,WeatherDisplay:10.37,2013-04-23 13:42:00,
2013-04-23 08:47:00,71.5,69.1,29.87,SE,132,11.0,11.0,92,0.00,CLR,SKC,0.00,301.0,WeatherDisplay:10.37,2013-04-23 13:47:00,
2013-04-23 08:52:00,71.7,68.9,29.87,ESE,106,15.0,15.0,91,0.00,CLR,SKC,0.00,360.0,WeatherDisplay:10.37,2013-04-23 13:52:00,
2013-04-23 08:57:00,71.9,69.1,29.88,SE,126,12.7,12.7,91,0.00,CLR,SKC,0.00,373.0,WeatherDisplay:10.37,2013-04-23 13:57:00,
2013-04-23 09:02:00,72.1,69.3,29.88,SE,130,9.2,9.2,91,0.00,CLR,SKC,0.00,390.0,WeatherDisplay:10.37,2013-04-23 14:02:00,
2013-04-23 09:07:00,72.3,69.2,29.88,SSE,147,12.7,12.7,90,0.00,CLR,SKC,0.00,406.0,WeatherDisplay:10.37,2013-04-23 14:07:00,
2013-04-23 09:12:00,72.5,69.1,29.88,SE,125,11.5,11.5,89,0.00,CLR,SKC,0.00,431.0,WeatherDisplay:10.37,2013-04-23 14:12:00,
2013-04-23 09:17:00,72.7,69.3,29.88,SE,136,11.0,11.0,89,0.00,CLR,SKC,0.00,448.0,WeatherDisplay:10.37,2013-04-23 14:17:00,
2013-04-23 09:22:00,72.9,69.5,29.88,SSE,155,13.8,13.8,89,0.00,CLR,SKC,0.00,469.0,WeatherDisplay:10.37,2013-04-23 14:22:00,
2013-04-23 09:27:00,73.1,69.3,29.87,SE,130,11.5,11.5,88,0.00,CLR,SKC,0.00,475.0,WeatherDisplay:10.37,2013-04-23 14:27:00,
2013-04-23 09:32:00,73.1,69.0,29.87,SE,136,15.0,15.0,87,0.00,CLR,SKC,0.00,504.0,WeatherDisplay:10.37,2013-04-23 14:32:00,
2013-04-23 09:37:00,73.2,69.4,29.87,ESE,103,10.4,10.4,88,0.00,CLR,SKC,0.00,494.0,WeatherDisplay:10.37,2013-04-23 14:37:00,
2013-04-23 09:42:00,73.3,69.5,29.88,SSE,157,11.5,11.5,88,0.00,CLR,SKC,0.00,503.0,WeatherDisplay:10.37,2013-04-23 14:42:00,
2013-04-23 09:47:00,73.3,69.2,29.88,ESE,121,12.7,12.7,87,0.00,CLR,SKC,0.00,534.0,WeatherDisplay:10.37,2013-04-23 14:47:00,
2013-04-23 09:52:00,73.1,69.0,29.88,ESE,111,13.0,13.0,87,0.00,CLR,SKC,0.00,563.0,WeatherDisplay:10.37,2013-04-23 14:52:00,
2013-04-23 09:57:00,73.4,69.6,29.88,SSE,148,11.5,11.5,88,0.00,CLR,SKC,0.00,573.0,WeatherDisplay:10.37,2013-04-23 14:57:00,
2013-04-23 10:02:00,73.5,69.4,29.88,SSE,153,11.5,11.5,87,0.00,CLR,SKC,0.00,580.0,WeatherDisplay:10.37,2013-04-23 15:02:00,
2013-04-23 10:07:00,73.7,69.2,29.88,East,101,15.0,15.0,86,0.00,CLR,SKC,0.00,573.0,WeatherDisplay:10.37,2013-04-23 15:07:00,
2013-04-23 10:12:00,73.9,69.8,29.88,SSE,159,11.5,11.5,87,0.00,CLR,SKC,0.00,603.0,WeatherDisplay:10.37,2013-04-23 15:12:00,
2013-04-23 10:17:00,74.0,69.5,29.88,SE,143,13.0,13.0,86,0.00,CLR,SKC,0.00,577.0,WeatherDisplay:10.37,2013-04-23 15:17:00,
2013-04-23 10:22:00,73.9,69.4,29.88,SE,138,13.8,13.8,86,0.00,CLR,SKC,0.00,619.0,WeatherDisplay:10.37,2013-04-23 15:22:00,
2013-04-23 10:27:00,74.0,69.9,29.88,ESE,113,11.5,11.5,87,0.00,CLR,SKC,0.00,640.0,WeatherDisplay:10.37,2013-04-23 15:27:00,
2013-04-23 10:32:00,74.1,69.6,29.88,ESE,107,17.3,17.3,86,0.00,CLR,SKC,0.00,654.0,WeatherDisplay:10.37,2013-04-23 15:32:00,
2013-04-23 10:37:00,73.9,69.4,29.88,East,98,13.8,13.8,86,0.00,CLR,SKC,0.00,659.0,WeatherDisplay:10.37,2013-04-23 15:37:00,
2013-04-23 10:42:00,73.6,69.5,29.88,ESE,105,17.0,17.0,87,0.00,CLR,SKC,0.00,675.0,WeatherDisplay:10.37,2013-04-23 15:42:00,
2013-04-23 10:47:00,73.5,69.4,29.88,ESE,113,16.1,16.1,87,0.00,CLR,SKC,0.00,691.0,WeatherDisplay:10.37,2013-04-23 15:47:00,
2013-04-23 10:52:00,73.7,69.6,29.88,ESE,123,13.0,13.0,87,0.00,CLR,SKC,0.00,705.0,WeatherDisplay:10.37,2013-04-23 15:52:00,
2013-04-23 10:57:00,73.7,69.6,29.88,SE,124,16.1,16.1,87,0.00,CLR,SKC,0.00,735.0,WeatherDisplay:10.37,2013-04-23 15:57:00,
2013-04-23 11:02:00,73.6,69.5,29.88,SE,125,13.8,13.8,87,0.00,CLR,SKC,0.00,751.0,WeatherDisplay:10.37,2013-04-23 16:02:00,
2013-04-23 11:07:00,73.5,69.7,29.88,SE,124,13.8,13.8,88,0.00,CLR,SKC,0.00,773.0,WeatherDisplay:10.37,2013-04-23 16:07:00,
2013-04-23 11:12:00,73.7,69.9,29.88,ESE,116,13.0,13.0,88,0.00,CLR,SKC,0.00,772.0,WeatherDisplay:10.37,2013-04-23 16:12:00,
2013-04-23 11:17:00,73.9,69.8,29.88,SSE,153,16.1,16.1,87,0.00,CLR,SKC,0.00,768.0,WeatherDisplay:10.37,2013-04-23 16:17:00,
2013-04-23 11:22:00,73.8,69.7,29.88,East,94,17.3,17.3,87,0.00,CLR,SKC,0.00,805.0,WeatherDisplay:10.37,2013-04-23 16:22:00,
2013-04-23 11:27:00,73.8,69.7,29.88,ESE,103,17.3,17.3,87,0.00,CLR,SKC,0.00,798.0,WeatherDisplay:10.37,2013-04-23 16:27:00,
2013-04-23 11:32:00,73.9,69.8,29.88,East,94,12.7,12.7,87,0.00,CLR,SKC,0.00,828.0,WeatherDisplay:10.37,2013-04-23 16:32:00,
2013-04-23 11:37:00,74.0,69.9,29.88,SE,126,17.3,17.3,87,0.00,CLR,SKC,0.00,831.0,WeatherDisplay:10.37,2013-04-23 16:37:00,
2013-04-23 11:42:00,74.3,70.2,29.88,SE,142,12.7,12.7,87,0.00,CLR,SKC,0.00,844.0,WeatherDisplay:10.37,2013-04-23 16:42:00,
2013-04-23 11:47:00,74.0,69.9,29.88,SE,138,17.3,17.3,87,0.00,CLR,SKC,0.00,853.0,WeatherDisplay:10.37,2013-04-23 16:47:00,
2013-04-23 11:52:00,74.2,70.1,29.88,ESE,110,16.1,16.1,87,0.00,CLR,SKC,0.00,851.0,WeatherDisplay:10.37,2013-04-23 16:52:00,
2013-04-23 11:57:00,74.3,69.8,29.88,ESE,116,13.8,13.8,86,0.00,CLR,SKC,0.00,826.0,WeatherDisplay:10.37,2013-04-23 16:57:00,
2013-04-23 12:02:00,74.3,70.2,29.88,ESE,119,10.4,10.4,87,0.00,CLR,SKC,0.00,891.0,WeatherDisplay:10.37,2013-04-23 17:02:00,
2013-04-23 12:07:00,74.8,70.3,29.88,ESE,111,13.8,13.8,86,0.00,CLR,SKC,0.00,838.0,WeatherDisplay:10.37,2013-04-23 17:07:00,
2013-04-23 12:12:00,74.9,70.4,29.87,ESE,116,13.8,13.8,86,0.00,CLR,SKC,0.00,821.0,WeatherDisplay:10.37,2013-04-23 17:12:00,
2013-04-23 12:17:00,74.9,70.1,29.87,East,88,12.7,12.7,85,0.00,CLR,SKC,0.00,777.0,WeatherDisplay:10.37,2013-04-23 17:17:00,
2013-04-23 12:22:00,75.1,70.3,29.87,ESE,120,12.7,12.7,85,0.00,CLR,SKC,0.00,708.0,WeatherDisplay:10.37,2013-04-23 17:22:00,
2013-04-23 12:27:00,75.0,70.5,29.87,SSE,159,12.7,12.7,86,0.00,CLR,SKC,0.00,735.0,WeatherDisplay:10.37,2013-04-23 17:27:00,
2013-04-23 12:32:00,74.9,70.4,29.87,SE,141,12.7,12.7,86,0.00,CLR,SKC,0.00,1005.0,WeatherDisplay:10.37,2013-04-23 17:32:00,
2013-04-23 12:37:00,74.8,70.0,29.87,ESE,110,19.6,19.6,85,0.00,CLR,SKC,0.00,856.0,WeatherDisplay:10.37,2013-04-23 17:37:00,
2013-04-23 12:42:00,74.6,70.1,29.86,ESE,109,16.1,16.1,86,0.00,CLR,SKC,0.00,837.0,WeatherDisplay:10.37,2013-04-23 17:42:00,
2013-04-23 12:47:00,74.6,70.1,29.86,ESE,109,16.1,16.1,86,0.00,CLR,SKC,0.00,629.0,WeatherDisplay:10.37,2013-04-23 17:47:00,
2013-04-23 12:52:00,74.5,70.0,29.86,ESE,117,16.1,16.1,86,0.00,CLR,SKC,0.00,601.0,WeatherDisplay:10.37,2013-04-23 17:52:00,
2013-04-23 12:57:00,74.4,69.9,29.86,SE,129,15.0,15.0,86,0.00,CLR,SKC,0.00,610.0,WeatherDisplay:10.37,2013-04-23 17:57:00,
2013-04-23 13:02:00,74.2,70.1,29.86,South,175,13.8,13.8,87,0.00,CLR,SKC,0.00,628.0,WeatherDisplay:10.37,2013-04-23 18:02:00,
2013-04-23 13:07:00,74.4,70.3,29.86,SSE,152,13.8,13.8,87,0.00,CLR,SKC,0.00,698.0,WeatherDisplay:10.37,2013-04-23 18:07:00,
2013-04-23 13:12:00,74.2,70.1,29.85,ESE,115,16.0,16.0,87,0.00,CLR,SKC,0.00,663.0,WeatherDisplay:10.37,2013-04-23 18:12:00,
2013-04-23 13:17:00,74.2,70.4,29.85,ESE,121,17.3,17.3,88,0.00,CLR,SKC,0.00,812.0,WeatherDisplay:10.37,2013-04-23 18:17:00,
2013-04-23 13:22:00,74.5,70.4,29.85,ESE,111,18.4,18.4,87,0.00,CLR,SKC,0.00,867.0,WeatherDisplay:10.37,2013-04-23 18:22:00,
2013-04-23 13:27:00,74.6,70.1,29.85,ESE,103,19.6,19.6,86,0.00,CLR,SKC,0.00,870.0,WeatherDisplay:10.37,2013-04-23 18:27:00,
2013-04-23 13:32:00,74.5,70.4,29.85,ESE,109,15.0,15.0,87,0.00,CLR,SKC,0.00,882.0,WeatherDisplay:10.37,2013-04-23 18:32:00,
2013-04-23 13:37:00,74.9,70.4,29.85,ESE,117,16.1,16.1,86,0.00,CLR,SKC,0.00,861.0,WeatherDisplay:10.37,2013-04-23 18:37:00,
2013-04-23 13:42:00,75.4,70.9,29.85,ESE,122,12.7,12.7,86,0.00,CLR,SKC,0.00,696.0,WeatherDisplay:10.37,2013-04-23 18:42:00,
2013-04-23 13:47:00,75.9,70.7,29.85,SSE,149,16.1,16.1,84,0.00,CLR,SKC,0.00,898.0,WeatherDisplay:10.37,2013-04-23 18:47:00,
2013-04-23 13:52:00,75.5,70.7,29.85,East,90,16.1,16.1,85,0.00,CLR,SKC,0.00,930.0,WeatherDisplay:10.37,2013-04-23 18:52:00,
2013-04-23 13:57:00,75.0,70.2,29.84,ESE,121,16.1,16.1,85,0.00,CLR,SKC,0.00,953.0,WeatherDisplay:10.37,2013-04-23 18:57:00,
2013-04-23 14:02:00,74.8,70.3,29.84,East,92,18.4,18.4,86,0.00,CLR,SKC,0.00,932.0,WeatherDisplay:10.37,2013-04-23 19:02:00,
2013-04-23 14:07:00,74.7,70.2,29.84,SE,126,15.0,15.0,86,0.00,CLR,SKC,0.00,914.0,WeatherDisplay:10.37,2013-04-23 19:07:00,
2013-04-23 14:12:00,75.0,70.9,29.84,SE,133,13.0,13.0,87,0.00,CLR,SKC,0.00,905.0,WeatherDisplay:10.37,2013-04-23 19:12:00,
2013-04-23 14:17:00,75.0,70.5,29.84,ESE,123,16.1,16.1,86,0.00,CLR,SKC,0.00,882.0,WeatherDisplay:10.37,2013-04-23 19:17:00,
2013-04-23 14:22:00,75.2,70.4,29.84,SE,128,15.0,15.0,85,0.00,CLR,SKC,0.00,896.0,WeatherDisplay:10.37,2013-04-23 19:22:00,
2013-04-23 14:27:00,75.2,70.4,29.83,SE,138,17.3,17.3,85,0.00,CLR,SKC,0.00,837.0,WeatherDisplay:10.37,2013-04-23 19:27:00,
2013-04-23 14:32:00,75.0,70.5,29.83,ESE,111,13.8,13.8,86,0.00,CLR,SKC,0.00,877.0,WeatherDisplay:10.37,2013-04-23 19:32:00,
2013-04-23 14:37:00,75.1,70.6,29.83,SE,132,15.0,15.0,86,0.00,CLR,SKC,0.00,877.0,WeatherDisplay:10.37,2013-04-23 19:37:00,
2013-04-23 14:42:00,75.2,70.4,29.83,East,98,16.1,16.1,85,0.00,CLR,SKC,0.00,863.0,WeatherDisplay:10.37,2013-04-23 19:42:00,
2013-04-23 14:47:00,75.0,70.5,29.83,SE,128,11.5,11.5,86,0.00,CLR,SKC,0.00,846.0,WeatherDisplay:10.37,2013-04-23 19:47:00,
2013-04-23 14:52:00,75.0,70.5,29.83,ESE,111,11.5,11.5,86,0.00,CLR,SKC,0.00,847.0,WeatherDisplay:10.37,2013-04-23 19:52:00,
2013-04-23 14:57:00,75.0,70.9,29.84,East,96,9.2,9.2,87,0.00,CLR,SKC,0.00,798.0,WeatherDisplay:10.37,2013-04-23 19:57:00,
2013-04-23 15:02:00,74.8,70.7,29.84,East,83,11.5,11.5,87,0.00,CLR,SKC,0.00,740.0,WeatherDisplay:10.37,2013-04-23 20:02:00,
2013-04-23 15:07:00,74.5,70.4,29.84,ESE,110,12.7,12.7,87,0.00,CLR,SKC,0.00,666.0,WeatherDisplay:10.37,2013-04-23 20:07:00,
2013-04-23 15:12:00,74.2,70.1,29.84,East,96,16.1,16.1,87,0.00,CLR,SKC,0.00,805.0,WeatherDisplay:10.37,2013-04-23 20:12:00,
2013-04-23 15:17:00,74.0,70.2,29.84,East,85,12.7,12.7,88,0.00,CLR,SKC,0.00,812.0,WeatherDisplay:10.37,2013-04-23 20:17:00,
2013-04-23 15:22:00,74.2,70.7,29.84,ESE,123,11.5,11.5,89,0.00,CLR,SKC,0.00,838.0,WeatherDisplay:10.37,2013-04-23 20:22:00,
2013-04-23 15:27:00,74.3,70.5,29.83,SE,139,13.8,13.8,88,0.00,CLR,SKC,0.00,357.0,WeatherDisplay:10.37,2013-04-23 20:27:00,
2013-04-23 15:32:00,74.0,70.2,29.83,East,87,10.4,10.4,88,0.00,CLR,SKC,0.00,380.0,WeatherDisplay:10.37,2013-04-23 20:32:00,
2013-04-23 15:37:00,73.9,70.1,29.83,ESE,122,11.5,11.5,88,0.00,CLR,SKC,0.00,279.0,WeatherDisplay:10.37,2013-04-23 20:37:00,
2013-04-23 15:42:00,73.7,69.9,29.82,SE,132,11.5,11.5,88,0.00,CLR,SKC,0.00,248.0,WeatherDisplay:10.37,2013-04-23 20:42:00,
2013-04-23 15:47:00,73.4,70.0,29.82,SE,127,12.7,12.7,89,0.00,CLR,SKC,0.00,246.0,WeatherDisplay:10.37,2013-04-23 20:47:00,
2013-04-23 15:52:00,73.3,70.2,29.82,ESE,109,11.0,11.0,90,0.00,CLR,SKC,0.00,209.0,WeatherDisplay:10.37,2013-04-23 20:52:00,
2013-04-23 15:57:00,73.2,69.8,29.82,East,86,11.5,11.5,89,0.00,CLR,SKC,0.00,209.0,WeatherDisplay:10.37,2013-04-23 20:57:00,
2013-04-23 16:02:00,73.0,69.9,29.82,East,86,12.7,12.7,90,0.00,CLR,SKC,0.00,142.0,WeatherDisplay:10.37,2013-04-23 21:02:00,
2013-04-23 16:07:00,72.8,69.7,29.82,East,82,11.5,11.5,90,0.00,CLR,SKC,0.00,120.0,WeatherDisplay:10.37,2013-04-23 21:07:00,
2013-04-23 16:12:00,72.6,69.5,29.82,East,89,11.5,11.5,90,0.00,CLR,SKC,0.00,123.0,WeatherDisplay:10.37,2013-04-23 21:12:00,
2013-04-23 16:17:00,72.3,69.5,29.82,East,98,11.5,11.5,91,0.00,CLR,SKC,0.00,100.0,WeatherDisplay:10.37,2013-04-23 21:17:00,
2013-04-23 16:22:00,72.4,69.6,29.82,East,99,9.2,9.2,91,0.00,CLR,SKC,0.00,120.0,WeatherDisplay:10.37,2013-04-23 21:22:00,
2013-04-23 16:27:00,72.3,69.5,29.82,ENE,67,10.4,10.4,91,0.00,CLR,SKC,0.00,139.0,WeatherDisplay:10.37,2013-04-23 21:27:00,
2013-04-23 16:32:00,72.4,69.6,29.82,East,98,11.5,11.5,91,0.00,CLR,SKC,0.00,113.0,WeatherDisplay:10.37,2013-04-23 21:32:00,
2013-04-23 16:37:00,72.4,69.6,29.82,ESE,111,12.7,12.7,91,0.00,CLR,SKC,0.00,197.0,WeatherDisplay:10.37,2013-04-23 21:37:00,
2013-04-23 16:42:00,72.5,69.7,29.81,ESE,105,9.2,9.2,91,0.00,CLR,SKC,0.00,160.0,WeatherDisplay:10.37,2013-04-23 21:42:00,
2013-04-23 16:47:00,72.4,69.6,29.81,East,88,11.5,11.5,91,0.00,CLR,SKC,0.00,107.0,WeatherDisplay:10.37,2013-04-23 21:47:00,
2013-04-23 16:52:00,72.3,69.5,29.81,East,99,12.7,12.7,91,0.00,CLR,SKC,0.00,111.0,WeatherDisplay:10.37,2013-04-23 21:52:00,
2013-04-23 16:57:00,72.3,69.8,29.81,ESE,109,11.5,11.5,92,0.00,CLR,SKC,0.00,105.0,WeatherDisplay:10.37,2013-04-23 21:57:00,
2013-04-23 17:02:00,72.2,69.7,29.81,East,99,11.5,11.5,92,0.00,CLR,SKC,0.00,100.0,WeatherDisplay:10.37,2013-04-23 22:02:00,
2013-04-23 17:07:00,72.2,69.7,29.81,East,92,12.7,12.7,92,0.00,CLR,SKC,0.00,84.0,WeatherDisplay:10.37,2013-04-23 22:07:00,
2013-04-23 17:12:00,72.2,69.7,29.81,East,91,12.0,12.0,92,0.00,CLR,SKC,0.00,76.0,WeatherDisplay:10.37,2013-04-23 22:12:00,
2013-04-23 17:17:00,72.1,69.6,29.81,ESE,103,12.7,12.7,92,0.00,CLR,SKC,0.00,81.0,WeatherDisplay:10.37,2013-04-23 22:17:00,
2013-04-23 17:22:00,72.0,69.5,29.81,ESE,110,15.0,15.0,92,0.00,CLR,SKC,0.00,98.0,WeatherDisplay:10.37,2013-04-23 22:22:00,
2013-04-23 17:27:00,72.0,69.5,29.81,ESE,117,13.0,13.0,92,0.00,CLR,SKC,0.00,86.0,WeatherDisplay:10.37,2013-04-23 22:27:00,
2013-04-23 17:32:00,72.0,69.5,29.81,SE,124,13.8,13.8,92,0.00,CLR,SKC,0.00,77.0,WeatherDisplay:10.37,2013-04-23 22:32:00,
2013-04-23 17:37:00,72.1,70.0,29.81,East,101,12.7,12.7,93,0.00,CLR,SKC,0.00,88.0,WeatherDisplay:10.37,2013-04-23 22:37:00,
2013-04-23 17:42:00,72.0,69.9,29.81,East,82,11.5,11.5,93,0.00,CLR,SKC,0.00,109.0,WeatherDisplay:10.37,2013-04-23 22:42:00,
2013-04-23 17:47:00,72.1,70.0,29.81,East,88,13.0,13.0,93,0.00,CLR,SKC,0.00,141.0,WeatherDisplay:10.37,2013-04-23 22:47:00,
2013-04-23 17:52:00,72.1,70.0,29.81,East,96,16.1,16.1,93,0.00,CLR,SKC,0.00,176.0,WeatherDisplay:10.37,2013-04-23 22:52:00,
2013-04-23 17:57:00,72.0,69.9,29.80,East,81,11.5,11.5,93,0.00,CLR,SKC,0.00,123.0,WeatherDisplay:10.37,2013-04-23 22:57:00,
2013-04-23 18:02:00,72.1,70.0,29.80,ESE,115,13.8,13.8,93,0.00,CLR,SKC,0.00,102.0,WeatherDisplay:10.37,2013-04-23 23:02:00,
2013-04-23 18:07:00,72.2,70.1,29.80,East,98,12.7,12.7,93,0.00,CLR,SKC,0.00,104.0,WeatherDisplay:10.37,2013-04-23 23:07:00,
2013-04-23 18:12:00,72.3,70.2,29.81,East,93,11.0,11.0,93,0.00,CLR,SKC,0.00,88.0,WeatherDisplay:10.37,2013-04-23 23:12:00,
2013-04-23 18:17:00,72.2,70.1,29.81,ENE,74,12.7,12.7,93,0.00,CLR,SKC,0.00,81.0,WeatherDisplay:10.37,2013-04-23 23:17:00,
2013-04-23 18:22:00,72.2,70.1,29.81,East,99,8.1,8.1,93,0.00,CLR,SKC,0.00,65.0,WeatherDisplay:10.37,2013-04-23 23:22:00,
2013-04-23 18:27:00,72.2,70.1,29.81,ENE,76,11.5,11.5,93,0.00,CLR,SKC,0.00,56.0,WeatherDisplay:10.37,2013-04-23 23:27:00,
2013-04-23 18:32:00,72.2,70.1,29.81,East,96,11.5,11.5,93,0.00,CLR,SKC,0.00,46.0,WeatherDisplay:10.37,2013-04-23 23:32:00,
2013-04-23 18:37:00,72.0,69.9,29.81,SE,127,12.7,12.7,93,0.00,CLR,SKC,0.00,25.0,WeatherDisplay:10.37,2013-04-23 23:37:00,
2013-04-23 18:42:00,72.0,69.9,29.81,ESE,105,12.7,12.7,93,0.00,CLR,SKC,0.00,25.0,WeatherDisplay:10.37,2013-04-23 23:42:00,
2013-04-23 18:47:00,71.9,69.8,29.81,ESE,103,16.1,16.1,93,0.00,CLR,SKC,0.00,28.0,WeatherDisplay:10.37,2013-04-23 23:47:00,
2013-04-23 18:52:00,71.8,69.7,29.81,ESE,116,13.8,13.8,93,0.00,CLR,SKC,0.00,28.0,WeatherDisplay:10.37,2013-04-23 23:52:00,
2013-04-23 18:57:00,71.8,69.7,29.81,SE,124,10.4,10.4,93,0.00,CLR,SKC,0.00,30.0,WeatherDisplay:10.37,2013-04-23 23:57:00,
2013-04-23 19:02:00,71.9,69.8,29.81,ESE,107,12.7,12.7,93,0.00,CLR,SKC,0.00,28.0,WeatherDisplay:10.37,2013-04-24 00:02:00,
2013-04-23 19:07:00,71.9,69.8,29.81,ENE,75,7.0,7.0,93,0.00,CLR,SKC,0.00,26.0,WeatherDisplay:10.37,2013-04-24 00:07:00,
2013-04-23 19:12:00,71.8,69.7,29.81,ESE,117,13.0,13.0,93,0.00,CLR,SKC,0.00,21.0,WeatherDisplay:10.37,2013-04-24 00:12:00,
2013-04-23 19:17:00,71.8,69.7,29.81,ESE,104,11.5,11.5,93,0.00,CLR,SKC,0.00,18.0,WeatherDisplay:10.37,2013-04-24 00:17:00,
2013-04-23 19:22:00,71.8,70.0,29.81,East,97,11.5,11.5,94,0.00,CLR,SKC,0.00,14.0,WeatherDisplay:10.37,2013-04-24 00:22:00,
2013-04-23 19:27:00,71.7,69.9,29.82,East,81,10.4,10.4,94,0.00,CLR,SKC,0.00,12.0,WeatherDisplay:10.37,2013-04-24 00:27:00,
2013-04-23 19:32:00,71.7,69.9,29.82,East,91,11.5,11.5,94,0.00,CLR,SKC,0.00,11.0,WeatherDisplay:10.37,2013-04-24 00:32:00,
2013-04-23 19:37:00,71.7,69.9,29.82,East,89,6.9,6.9,94,0.00,CLR,SKC,0.00,9.0,WeatherDisplay:10.37,2013-04-24 00:37:00,
2013-04-23 19:42:00,71.6,69.8,29.82,East,91,11.5,11.5,94,0.00,CLR,SKC,0.00,5.0,WeatherDisplay:10.37,2013-04-24 00:42:00,
2013-04-23 19:47:00,71.6,69.8,29.82,East,95,11.5,11.5,94,0.00,CLR,SKC,0.00,0.0,WeatherDisplay:10.37,2013-04-24 00:47:00,
2013-04-23 19:52:00,71.5,69.7,29.82,East,88,12.7,12.7,94,0.00,CLR,SKC,0.00,0.0,WeatherDisplay:10.37,2013-04-24 00:52:00,
2013-04-23 19:57:00,71.5,69.7,29.82,East,96,13.0,13.0,94,0.00,CLR,SKC,0.00,0.0,WeatherDisplay:10.37,2013-04-24 00:57:00,
2013-04-23 20:02:00,71.5,69.7,29.82,East,92,13.8,13.8,94,0.00,CLR,SKC,0.00,0.0,WeatherDisplay:10.37,2013-04-24 01:02:00,
2013-04-23 20:07:00,71.5,69.7,29.82,ENE,75,11.5,11.5,94,0.00,CLR,SKC,0.00,0.0,WeatherDisplay:10.37,2013-04-24 01:07:00,
2013-04-23 20:12:00,71.5,69.7,29.83,ENE,73,11.5,11.5,94,0.00,CLR,SKC,0.00,0.0,WeatherDisplay:10.37,2013-04-24 01:12:00,
2013-04-23 20:17:00,71.6,69.8,29.83,ESE,109,11.5,11.5,94,0.00,CLR,SKC,0.00,0.0,WeatherDisplay:10.37,2013-04-24 01:17:00,
2013-04-23 20:22:00,71.5,70.0,29.83,East,87,11.5,11.5,95,0.00,CLR,SKC,0.00,0.0,WeatherDisplay:10.37,2013-04-24 01:22:00,
2013-04-23 20:27:00,71.5,70.0,29.83,ESE,106,12.7,12.7,95,0.00,CLR,SKC,0.00,0.0,WeatherDisplay:10.37,2013-04-24 01:27:00,
2013-04-23 20:32:00,71.6,70.1,29.83,East,97,11.5,11.5,95,0.00,CLR,SKC,0.00,0.0,WeatherDisplay:10.37,2013-04-24 01:32:00,
2013-04-23 20:37:00,71.5,70.0,29.83,East,85,11.5,11.5,95,0.00,CLR,SKC,0.00,0.0,WeatherDisplay:10.37,2013-04-24 01:37:00,
2013-04-23 20:42:00,71.5,70.0,29.84,East,95,11.5,11.5,95,0.00,CLR,SKC,0.00,0.0,WeatherDisplay:10.37,2013-04-24 01:42:00,
2013-04-23 20:47:00,71.5,70.0,29.84,East,92,10.4,10.4,95,0.00,CLR,SKC,0.00,0.0,WeatherDisplay:10.37,2013-04-24 01:47:00,
2013-04-23 20:52:00,71.5,70.0,29.84,East,92,11.5,11.5,95,0.00,CLR,SKC,0.00,0.0,WeatherDisplay:10.37,2013-04-24 01:52:00,
2013-04-23 20:57:00,71.5,70.0,29.84,East,90,11.5,11.5,95,0.00,CLR,SKC,0.00,0.0,WeatherDisplay:10.37,2013-04-24 01:57:00,
2013-04-23 21:02:00,71.5,70.0,29.84,East,97,10.4,10.4,95,0.00,CLR,SKC,0.00,0.0,WeatherDisplay:10.37,2013-04-24 02:02:00,
2013-04-23 21:07:00,71.5,70.0,29.84,East,100,10.4,10.4,95,0.00,CLR,SKC,0.00,0.0,WeatherDisplay:10.37,2013-04-24 02:07:00,
2013-04-23 21:12:00,71.6,70.1,29.85,East,80,11.5,11.5,95,0.00,CLR,SKC,0.00,0.0,WeatherDisplay:10.37,2013-04-24 02:12:00,
2013-04-23 21:18:00,71.6,70.1,29.85,ESE,107,11.5,11.5,95,0.00,CLR,SKC,0.00,0.0,WeatherDisplay:10.37,2013-04-24 02:18:00,
2013-04-23 21:23:00,71.6,70.1,29.85,ENE,75,10.4,10.4,95,0.00,CLR,SKC,0.00,0.0,WeatherDisplay:10.37,2013-04-24 02:23:00,
2013-04-23 21:28:00,71.6,70.1,29.87,East,98,10.4,10.4,95,0.00,CLR,SKC,0.00,0.0,WeatherDisplay:10.37,2013-04-24 02:28:00,
2013-04-23 21:33:00,71.5,70.0,29.87,ESE,116,10.4,10.4,95,0.00,CLR,SKC,0.00,0.0,WeatherDisplay:10.37,2013-04-24 02:33:00,
2013-04-23 21:39:00,71.5,70.0,29.87,East,86,10.4,10.4,95,0.00,CLR,SKC,0.00,0.0,WeatherDisplay:10.37,2013-04-24 02:39:00,
2013-04-23 21:44:00,71.5,70.0,29.87,East,95,12.7,12.7,95,0.00,CLR,SKC,0.00,0.0,WeatherDisplay:10.37,2013-04-24 02:44:00,
2013-04-23 21:50:00,71.5,70.0,29.87,ESE,116,11.5,11.5,95,0.00,CLR,SKC,0.00,0.0,WeatherDisplay:10.37,2013-04-24 02:50:00,
2013-04-23 21:55:00,71.5,70.0,29.88,East,82,11.5,11.5,95,0.00,CLR,SKC,0.00,0.0,WeatherDisplay:10.37,2013-04-24 02:55:00,
2013-04-23 22:01:00,71.5,70.0,29.88,East,91,6.0,9.0,95,0.00,CLR,SKC,0.00,0.0,WeatherDisplay:10.37,2013-04-24 03:01:00,
2013-04-23 22:06:00,71.5,70.0,29.88,East,86,7.0,7.0,95,0.00,CLR,SKC,0.00,0.0,WeatherDisplay:10.37,2013-04-24 03:06:00,
2013-04-23 22:11:00,71.5,70.0,29.88,East,98,6.0,12.0,95,0.00,CLR,SKC,0.00,0.0,WeatherDisplay:10.37,2013-04-24 03:11:00,
2013-04-23 22:17:00,71.6,70.1,29.88,East,82,11.5,11.5,95,0.00,CLR,SKC,0.00,0.0,WeatherDisplay:10.37,2013-04-24 03:17:00,
2013-04-23 22:22:00,71.6,70.1,29.88,East,97,10.4,10.4,95,0.00,CLR,SKC,0.00,0.0,WeatherDisplay:10.37,2013-04-24 03:22:00,
2013-04-23 22:27:00,71.5,70.0,29.88,East,79,10.4,10.4,95,0.00,CLR,SKC,0.00,0.0,WeatherDisplay:10.37,2013-04-24 03:27:00,
2013-04-23 22:32:00,71.5,70.0,29.88,East,82,10.4,10.4,95,0.00,CLR,SKC,0.00,0.0,WeatherDisplay:10.37,2013-04-24 03:32:00,
2013-04-23 22:37:00,71.5,70.0,29.88,ENE,76,10.4,10.4,95,0.00,CLR,SKC,0.00,0.0,WeatherDisplay:10.37,2013-04-24 03:37:00,
2013-04-23 22:43:00,71.6,70.1,29.89,East,96,9.2,9.2,95,0.00,CLR,SKC,0.00,0.0,WeatherDisplay:10.37,2013-04-24 03:43:00,
2013-04-23 22:48:00,71.6,70.1,29.89,East,94,9.2,9.2,95,0.00,CLR,SKC,0.00,0.0,WeatherDisplay:10.37,2013-04-24 03:48:00,
2013-04-23 22:53:00,71.6,70.1,29.89,ESE,115,11.5,11.5,95,0.00,CLR,SKC,0.00,0.0,WeatherDisplay:10.37,2013-04-24 03:53:00,
2013-04-23 22:58:00,71.6,70.1,29.88,SE,130,10.4,10.4,95,0.00,CLR,SKC,0.00,0.0,WeatherDisplay:10.37,2013-04-24 03:58:00,
2013-04-23 23:01:00,71.5,70.0,29.88,ESE,105,6.0,8.0,95,0.00,CLR,SKC,0.00,0.0,WeatherDisplay:10.37,2013-04-24 04:01:00,
2013-04-23 23:06:00,71.5,70.0,29.88,ESE,106,8.0,8.0,95,0.00,CLR,SKC,0.00,0.0,WeatherDisplay:10.37,2013-04-24 04:06:00,
2013-04-23 23:11:00,71.5,70.0,29.89,ESE,114,6.9,6.9,95,0.00,CLR,SKC,0.00,0.0,WeatherDisplay:10.37,2013-04-24 04:11:00,
2013-04-23 23:16:00,71.6,70.1,29.89,ESE,117,9.2,9.2,95,0.00,CLR,SKC,0.00,0.0,WeatherDisplay:10.37,2013-04-24 04:16:00,
2013-04-23 23:21:00,71.7,70.2,29.89,East,87,10.4,10.4,95,0.00,CLR,SKC,0.00,0.0,WeatherDisplay:10.37,2013-04-24 04:21:00,
2013-04-23 23:26:00,71.6,70.1,29.90,ESE,119,9.2,9.2,95,0.00,CLR,SKC,0.00,0.0,WeatherDisplay:10.37,2013-04-24 04:26:00,
2013-04-23 23:31:00,71.6,70.1,29.90,ESE,123,11.5,11.5,95,0.00,CLR,SKC,0.00,0.0,WeatherDisplay:10.37,2013-04-24 04:31:00,
2013-04-23 23:36:00,71.7,70.2,29.90,ESE,119,10.0,10.0,95,0.00,CLR,SKC,0.00,0.0,WeatherDisplay:10.37,2013-04-24 04:36:00,
2013-04-23 23:41:00,71.6,70.1,29.90,ESE,103,5.8,5.8,95,0.00,CLR,SKC,0.00,0.0,WeatherDisplay:10.37,2013-04-24 04:41:00,
2013-04-23 23:46:00,71.6,70.1,29.90,ESE,112,9.2,9.2,95,0.00,CLR,SKC,0.00,0.0,WeatherDisplay:10.37,2013-04-24 04:46:00,
2013-04-23 23:51:00,71.6,70.1,29.90,East,88,6.9,6.9,95,0.00,CLR,SKC,0.00,0.0,WeatherDisplay:10.37,2013-04-24 04:51:00,
2013-04-23 23:56:00,71.5,70.0,29.91,SE,127,9.2,9.2,95,0.00,CLR,SKC,0.00,0.0,WeatherDisplay:10.37,2013-04-24 04:56:00,